Location: Chandolas
(44.4033°N, 4.2533°E)
Time: 13:41:20
(UTC+00:00)

Cosmos 1408 Rocket - Pass Details

Date: 15 November 2019
Orbit: 602 x 630 km, 82.6° (Epoch: 05 December)

Event Time Altitude Azimuth Distance (km) Brightness Sun altitude
Rises 05:52:28 0° 204° (SSW) 2,839 6.9 -8.5°
Reaches altitude 10° 05:54:46 10° 211° (SSW) 1,942 6.0 -8.1°
Maximum altitude 05:58:50 42° 283° (WNW) 866 3.9 -7.4°
Drops below altitude 10° 06:02:59 10° 355° (N) 1,966 5.9 -6.7°
Sets 06:05:19 0° 3° (N) 2,878 6.8 -6.3°
